User: anonymous   Login
Location: Unspecified
(0.0000°N, 0.0000°E)
Time: 09:11:09
(UTC+00:00)
Language:

NNS O-27 - Orbit

View from above orbital plane
View from above orbital plane
View from above satellite
View from above satellite

Ground track
Ground track

The orbit data is extracted from the following two-line orbital elements,

1 18361U 87080A   18267.24058253 +.00000055 +00000-0 +78074-4 0  9995
2 18361 090.3280 350.6696 0103839 211.4780 148.0128 13.44462437521274
Epoch (UTC): 24 September 2018 05:46:26
Eccentricity: 0.0103839
inclination: 90.3280°
perigee height: 1015 km
apogee height: 1170 km
right ascension of ascending node: 350.6696°
argument of perigee: 211.4780°
revolutions per day: 13.44462437
mean anomaly at epoch: 148.0128°
orbit number at epoch: 52127

The dashed part of the orbit path shows where the satellite is in the earth's shadow,  

DLR